SWA44 PHNL-PHLI

Flight info

Callsign SWA44
Flight time 0h 23m
Altitude 14000
Route KEOLA3 LIH
Aircraft B738/M-SDE2E3FGHIRWXY/LB1

Departure

Time 2026-05-09 07:24
Airport Daniel K. Inouye International Airport (PHNL)

Arrival

Time 2026-05-09 07:47
Airport Lihue Airport (PHLI)
Time Latitude Longitude Altitude Speed Heading
2026-05-09 06:05 21.33010 -157.92076 5 ft 0 kts 99°
2026-05-09 07:11 21.33013 -157.92101 27 ft 4 kts 99°
2026-05-09 07:11 21.33016 -157.92123 25 ft 4 kts 77°
2026-05-09 07:11 21.33003 -157.92143 26 ft 4 kts 21°
2026-05-09 07:11 21.32979 -157.92149 26 ft 4 kts
2026-05-09 07:12 21.32952 -157.92154 28 ft 4 kts
2026-05-09 07:12 21.32925 -157.92158 26 ft 4 kts
2026-05-09 07:12 21.32898 -157.92163 26 ft 4 kts
2026-05-09 07:12 21.32872 -157.92167 27 ft 4 kts
2026-05-09 07:13 21.32846 -157.92172 27 ft 4 kts
2026-05-09 07:13 21.32819 -157.92171 25 ft 4 kts 349°
2026-05-09 07:13 21.32794 -157.92162 29 ft 4 kts 327°
2026-05-09 07:13 21.32776 -157.92143 28 ft 4 kts 291°
2026-05-09 07:14 21.32773 -157.92117 25 ft 4 kts 270°
2026-05-09 07:14 21.32773 -157.92088 23 ft 3 kts 270°
2026-05-09 07:14 21.32773 -157.92084 23 ft 0 kts 270°
2026-05-09 07:16 21.32773 -157.92085 23 ft 1 kts 270°
2026-05-09 07:16 21.32773 -157.92129 27 ft 11 kts 270°
2026-05-09 07:17 21.32773 -157.92248 23 ft 21 kts 270°
2026-05-09 07:17 21.32774 -157.92414 23 ft 22 kts 271°
2026-05-09 07:17 21.32774 -157.92578 23 ft 22 kts 270°
2026-05-09 07:17 21.32766 -157.92736 23 ft 21 kts 255°
2026-05-09 07:18 21.32743 -157.92887 23 ft 20 kts 269°
2026-05-09 07:18 21.32742 -157.93037 23 ft 20 kts 269°
2026-05-09 07:18 21.32743 -157.93180 24 ft 19 kts 271°
2026-05-09 07:18 21.32744 -157.93320 24 ft 18 kts 270°
2026-05-09 07:19 21.32744 -157.93456 24 ft 18 kts 270°
2026-05-09 07:19 21.32744 -157.93587 24 ft 17 kts 268°
2026-05-09 07:19 21.32741 -157.93713 24 ft 17 kts 268°
2026-05-09 07:19 21.32740 -157.93835 24 ft 16 kts 271°
2026-05-09 07:20 21.32741 -157.93952 24 ft 15 kts 271°
2026-05-09 07:20 21.32721 -157.94059 24 ft 15 kts 236°
2026-05-09 07:20 21.32641 -157.94121 25 ft 14 kts 208°
2026-05-09 07:20 21.32556 -157.94172 25 ft 15 kts 209°
2026-05-09 07:21 21.32428 -157.94247 24 ft 27 kts 208°
2026-05-09 07:21 21.32238 -157.94360 24 ft 33 kts 210°
2026-05-09 07:21 21.32042 -157.94479 24 ft 31 kts 209°
2026-05-09 07:21 21.31858 -157.94588 25 ft 29 kts 208°
2026-05-09 07:22 21.31674 -157.94657 25 ft 28 kts 181°
2026-05-09 07:22 21.31490 -157.94639 24 ft 26 kts 173°
2026-05-09 07:22 21.31318 -157.94615 25 ft 24 kts 174°
2026-05-09 07:22 21.31156 -157.94596 25 ft 23 kts 173°
2026-05-09 07:23 21.31001 -157.94575 25 ft 22 kts 173°
2026-05-09 07:23 21.30850 -157.94566 27 ft 22 kts 179°
2026-05-09 07:23 21.30711 -157.94566 23 ft 15 kts 164°
2026-05-09 07:23 21.30682 -157.94453 26 ft 30 kts 90°
2026-05-09 07:24 21.30682 -157.93920 28 ft 111 kts 90°
2026-05-09 07:24 21.30681 -157.92865 103 ft 168 kts 89°
2026-05-09 07:24 21.30485 -157.91578 751 ft 186 kts 112°
2026-05-09 07:24 21.29594 -157.90498 1536 ft 205 kts 147°
2026-05-09 07:25 21.28189 -157.90133 2443 ft 213 kts 176°
2026-05-09 07:25 21.26685 -157.90165 3126 ft 225 kts 179°
2026-05-09 07:25 21.25009 -157.90221 3358 ft 256 kts 179°
2026-05-09 07:25 21.23152 -157.90282 3905 ft 273 kts 180°
2026-05-09 07:26 21.21330 -157.90830 4833 ft 275 kts 213°
2026-05-09 07:26 21.20094 -157.92353 5835 ft 274 kts 247°
2026-05-09 07:26 21.19784 -157.94353 6711 ft 275 kts 273°
2026-05-09 07:26 21.20051 -157.96398 7505 ft 280 kts 281°
2026-05-09 07:27 21.20442 -157.98460 8307 ft 284 kts 282°
2026-05-09 07:27 21.20858 -158.00542 9138 ft 288 kts 282°
2026-05-09 07:27 21.21272 -158.02632 9963 ft 291 kts 282°
2026-05-09 07:27 21.21692 -158.04789 10511 ft 305 kts 282°
2026-05-09 07:28 21.22136 -158.07116 10683 ft 330 kts 281°
2026-05-09 07:28 21.22605 -158.09608 10917 ft 350 kts 281°
2026-05-09 07:28 21.23088 -158.12203 11443 ft 358 kts 281°
2026-05-09 07:28 21.23573 -158.14828 12148 ft 360 kts 281°
2026-05-09 07:29 21.24059 -158.17473 12881 ft 362 kts 281°
2026-05-09 07:29 21.24546 -158.20128 13591 ft 364 kts 280°
2026-05-09 07:29 21.25034 -158.22796 13976 ft 364 kts 280°
2026-05-09 07:29 21.25527 -158.25499 14031 ft 377 kts 280°
2026-05-09 07:30 21.26034 -158.28280 14035 ft 382 kts 280°
2026-05-09 07:30 21.26539 -158.31048 14040 ft 382 kts 280°
2026-05-09 07:30 21.27049 -158.33841 14029 ft 381 kts 280°
2026-05-09 07:30 21.27556 -158.36627 14028 ft 380 kts 280°
2026-05-09 07:31 21.28063 -158.39410 14031 ft 380 kts 280°
2026-05-09 07:31 21.28569 -158.42192 14024 ft 380 kts 280°
2026-05-09 07:31 21.29072 -158.44966 14025 ft 380 kts 280°
2026-05-09 07:31 21.29641 -158.47738 14017 ft 381 kts 285°
2026-05-09 07:32 21.30589 -158.50390 14028 ft 382 kts 295°
2026-05-09 07:32 21.31904 -158.52810 14021 ft 369 kts 301°
2026-05-09 07:32 21.33262 -158.55100 14014 ft 356 kts 301°
2026-05-09 07:32 21.34577 -158.57300 14011 ft 345 kts 301°
2026-05-09 07:33 21.35865 -158.59462 14025 ft 345 kts 301°
2026-05-09 07:33 21.38431 -158.63816 13432 ft 347 kts 301°
2026-05-09 07:33 21.39714 -158.66007 13041 ft 345 kts 301°
2026-05-09 07:34 21.40983 -158.68179 12635 ft 342 kts 301°
2026-05-09 07:34 21.42220 -158.70300 12241 ft 339 kts 301°
2026-05-09 07:34 21.43484 -158.72471 11835 ft 336 kts 301°
2026-05-09 07:34 21.44721 -158.74596 11434 ft 334 kts 301°
2026-05-09 07:35 21.45954 -158.76713 11042 ft 332 kts 301°
2026-05-09 07:35 21.47157 -158.78782 10667 ft 330 kts 301°
2026-05-09 07:35 21.48371 -158.80868 10524 ft 319 kts 301°
2026-05-09 07:35 21.49515 -158.82835 10368 ft 310 kts 301°
2026-05-09 07:36 21.50639 -158.84769 10249 ft 301 kts 301°
2026-05-09 07:36 21.51735 -158.86654 10109 ft 293 kts 301°
2026-05-09 07:36 21.52799 -158.88480 9997 ft 284 kts 301°
2026-05-09 07:36 21.53841 -158.90271 9699 ft 282 kts 301°
2026-05-09 07:37 21.54879 -158.92054 9421 ft 280 kts 301°
2026-05-09 07:37 21.55905 -158.93819 9133 ft 278 kts 301°
2026-05-09 07:37 21.56927 -158.95576 8850 ft 276 kts 301°
2026-05-09 07:37 21.57940 -158.97320 8556 ft 274 kts 302°
2026-05-09 07:38 21.58947 -158.99053 8271 ft 273 kts 302°
2026-05-09 07:38 21.59949 -159.00778 7990 ft 271 kts 302°
2026-05-09 07:38 21.60946 -159.02495 7702 ft 270 kts 302°
2026-05-09 07:38 21.61939 -159.04206 7425 ft 269 kts 302°
2026-05-09 07:39 21.62915 -159.05888 7146 ft 268 kts 302°
2026-05-09 07:39 21.63900 -159.07586 6862 ft 268 kts 302°
2026-05-09 07:39 21.64884 -159.09283 6581 ft 267 kts 303°
2026-05-09 07:39 21.65866 -159.10977 6284 ft 267 kts 303°
2026-05-09 07:40 21.66847 -159.12670 5985 ft 267 kts 303°
2026-05-09 07:40 21.67826 -159.14361 5700 ft 266 kts 303°
2026-05-09 07:40 21.68806 -159.16053 5411 ft 266 kts 303°
2026-05-09 07:40 21.69783 -159.17741 5133 ft 266 kts 303°
2026-05-09 07:41 21.70758 -159.19425 4855 ft 265 kts 303°
2026-05-09 07:41 21.71733 -159.21109 4566 ft 265 kts 304°
2026-05-09 07:41 21.72707 -159.22793 4283 ft 264 kts 304°
2026-05-09 07:41 21.73670 -159.24458 4024 ft 261 kts 304°
2026-05-09 07:42 21.74619 -159.26094 3930 ft 253 kts 304°
2026-05-09 07:42 21.75537 -159.27673 3803 ft 245 kts 304°
2026-05-09 07:42 21.76410 -159.29178 3715 ft 236 kts 304°
2026-05-09 07:42 21.77264 -159.30649 3615 ft 228 kts 305°
2026-05-09 07:43 21.78097 -159.32083 3478 ft 225 kts 305°
2026-05-09 07:43 21.79106 -159.33296 3210 ft 214 kts 334°
2026-05-09 07:43 21.80485 -159.33655 3013 ft 199 kts
2026-05-09 07:43 21.81848 -159.33634 2854 ft 192 kts
2026-05-09 07:44 21.83166 -159.33601 2662 ft 188 kts
2026-05-09 07:44 21.84464 -159.33593 2419 ft 185 kts
2026-05-09 07:44 21.85739 -159.33592 2160 ft 181 kts
2026-05-09 07:44 21.86994 -159.33592 1942 ft 180 kts
2026-05-09 07:45 21.88233 -159.33591 1708 ft 175 kts
2026-05-09 07:45 21.89404 -159.33592 1504 ft 160 kts
2026-05-09 07:45 21.90478 -159.33591 1263 ft 149 kts
2026-05-09 07:45 21.91488 -159.33590 1082 ft 145 kts
2026-05-09 07:46 21.92497 -159.33590 899 ft 145 kts
2026-05-09 07:46 21.93523 -159.33589 703 ft 148 kts
2026-05-09 07:46 21.94542 -159.33588 503 ft 145 kts
2026-05-09 07:46 21.95208 -159.33589 375 ft 145 kts
2026-05-09 07:47 21.96215 -159.33600 170 ft 143 kts
2026-05-09 07:47 21.97106 -159.33600 96 ft 90 kts
2026-05-09 07:47 21.97462 -159.33591 99 ft 36 kts 360°
2026-05-09 07:47 21.97688 -159.33591 102 ft 30 kts
2026-05-09 07:48 21.97824 -159.33639 102 ft 18 kts 330°
2026-05-09 07:48 21.97924 -159.33695 102 ft 2 kts 331°
2026-05-09 07:48 21.97941 -159.33757 103 ft 19 kts 273°
2026-05-09 07:48 21.97941 -159.33899 113 ft 19 kts 270°
2026-05-09 07:49 21.97940 -159.34036 118 ft 18 kts 270°
2026-05-09 07:49 21.97940 -159.34169 122 ft 17 kts 270°
2026-05-09 07:49 21.97939 -159.34298 123 ft 17 kts 269°
2026-05-09 07:49 21.97907 -159.34392 127 ft 13 kts 230°
2026-05-09 07:50 21.97843 -159.34460 133 ft 13 kts 224°
2026-05-09 07:50 21.97781 -159.34527 138 ft 12 kts 225°
2026-05-09 07:50 21.97751 -159.34608 144 ft 12 kts 281°
2026-05-09 07:50 21.97791 -159.34683 152 ft 11 kts 281°
2026-05-09 07:51 21.97755 -159.34754 152 ft 11 kts 226°
2026-05-09 07:51 21.97711 -159.34817 152 ft 11 kts 261°
2026-05-09 07:51 21.97735 -159.34854 152 ft 4 kts 315°
2026-05-09 07:51 21.97746 -159.34866 152 ft 1 kts 315°
2026-05-09 07:54 21.97708 -159.34903 152 ft 0 kts 315°